Regional Weather Roundup
Issued by NWS Little Rock, AR

Home | Current Version | Previous Version | Graphics & Text | Print | Product List | Glossary On
Versions: 1 2 3 4 5 6 7 8 9 10 11 12 13 14 15 16 17 18 19 20 21 22 23 24 25 26 27 28 29 30 31 32 33 34 35 36 37 38 39 40 41 42 43 44 45 46 47 48 49 50
000
ASUS44 KLZK 231205
RWRLZK

WEATHER ROUNDUP FOR ARKANSAS
NATIONAL WEATHER SERVICE LITTLE ROCK AR
700 AM CDT SUN APR 23 2017

NOTE: "FAIR" INDICATES FEW OR NO CLOUDS BELOW 12,000 FEET WITH NO
SIGNIFICANT WEATHER AND/OR OBSTRUCTIONS TO VISIBILITY.

ARZ001-003-010-029-231300-
NORTHWEST ARKANSAS

CITY           SKY/WX    TMP DP  RH WIND       PRES   REMARKS
FAYETTEVILLE   CLEAR     41  41 100 N3        30.11R
6HR MIN TEMP:  40; 6HR MAX TEMP:  46;

FORT SMITH     CLEAR     46  42  86 SW5       30.11R
6HR MIN TEMP:  46; 6HR MAX TEMP:  52;

HARRISON       CLEAR     43  39  86 NW6       30.09R
6HR MIN TEMP:  43; 6HR MAX TEMP:  47;

BENTONVILLE    CLEAR     43  37  81 N3        30.12R
6HR MIN TEMP:  43; 6HR MAX TEMP:  46;

ROGERS         CLEAR     42  39  89 N3        30.12R
6HR MIN TEMP:  41; 6HR MAX TEMP:  46;

SILOAM SPGS    CLEAR     43  37  81 N8        30.12R
6HR MIN TEMP:  39; 6HR MAX TEMP:  46;

HIGHFILL       CLEAR     43  39  86 N7        30.11R
6HR MIN TEMP:  43; 6HR MAX TEMP:  47;

SPRINGDALE     CLEAR     43  39  87 N7        30.12R
$$

ARZ004-005-016-231300-
NORTH CENTRAL ARKANSAS

CITY           SKY/WX    TMP DP  RH WIND       PRES   REMARKS
BATESVILLE     MOCLDY    48  43  81 NW5       30.03R
                                      6HR PCP:  0.01;

FLIPPIN        CLEAR     46  36  66 N6        30.06R
6HR MIN TEMP:  46; 6HR MAX TEMP:  50;

MTN HOME       CLEAR     44  38  79 VRB3      30.06R
6HR MIN TEMP:  43; 6HR MAX TEMP:  47;

$$

ARZ040-041-231300-
WEST CENTRAL ARKANSAS

CITY           SKY/WX    TMP DP  RH WIND       PRES   REMARKS
MENA           CLEAR     52  46  82 N8        30.08R
$$

ARZ009-017-025-026-028-231300-
NORTHEAST ARKANSAS

CITY           SKY/WX    TMP DP  RH WIND       PRES   REMARKS
CORNING        PTSUNNY   48  43  81 N13G20    30.01R
JONESBORO      MOCLDY    50  44  80 N7        29.98R
6HR MIN TEMP:  49; 6HR MAX TEMP:  50; 6HR PCP:  0.02;

NEWPORT        CLOUDY    49  45  86 N13       30.00R
6HR MIN TEMP:  48; 6HR MAX TEMP:  49;

WALNUT RIDGE   PTCLDY    48  41  76 N13       30.00R
6HR MIN TEMP:  48; 6HR MAX TEMP:  52;

BLYTHEVILLE    CLOUDY    50  47  89 N16       29.95R
6HR MIN TEMP:  49; 6HR MAX TEMP:  51; 6HR PCP:  0.17;

$$

ARZ022-023-033-042-044-231300-
CENTRAL ARKANSAS

CITY           SKY/WX    TMP DP  RH WIND       PRES   REMARKS
LITTLE ROCK    MOCLDY    50  46  86 NW10      30.03R
6HR MIN TEMP:  49; 6HR MAX TEMP:  51;

N LITTLE ROCK    N/A     49  46  87 N6        30.04R
6HR MIN TEMP:  49; 6HR MAX TEMP:  50;

JACKSONVILLE   CLOUDY    50  46  85 W6        30.02R
6HR MIN TEMP:  50; 6HR MAX TEMP:  52;

CONWAY           N/A     52  46  82 NW6       30.03R
SEARCY         CLEAR     49  46  90 NW6       30.03R
6HR MIN TEMP:  48; 6HR MAX TEMP:  50;

HOT SPRINGS    CLOUDY    51  47  86 CALM      30.05R
6HR MIN TEMP:  51; 6HR MAX TEMP:  52;

RUSSELLVILLE   CLEAR     47  44  90 NW3       30.05R
6HR MIN TEMP:  47; 6HR MAX TEMP:  52; 6HR PCP: TRACE;

$$

ARZ036-231300-
EAST ARKANSAS

CITY           SKY/WX    TMP DP  RH WIND       PRES   REMARKS
WEST MEMPHIS   CLOUDY    50  49  96 N12       29.94R
6HR MIN TEMP:  50; 6HR MAX TEMP:  51; 6HR PCP: TRACE;

$$

ARZ050-053-066-070-073-231300-
SOUTHWEST ARKANSAS

CITY           SKY/WX    TMP DP  RH WIND       PRES   REMARKS
ARKADELPHIA    CLOUDY    53  47  79 NW6       30.05R
6HR MIN TEMP:  52; 6HR MAX TEMP:  54;

CAMDEN         CLOUDY    50  45  81 N8        30.04R
TEXARKANA      MOCLDY    49  46  90 NW8       30.07R
6HR MIN TEMP:  48; 6HR MAX TEMP:  51;

EL DORADO      CLOUDY    51  48  89 NW6       30.04R
6HR MIN TEMP:  50; 6HR MAX TEMP:  52; 6HR PCP:  0.01;

DE QUEEN       CLEAR     45  45 100 CALM      30.07R
6HR MIN TEMP:  44; 6HR MAX TEMP:  52;

$$

ARZ056-057-069-231300-
SOUTHEAST ARKANSAS

CITY           SKY/WX    TMP DP  RH WIND       PRES   REMARKS
PINE BLUFF     CLOUDY    51  47  86 N13G21    30.01R
6HR MIN TEMP:  50; 6HR MAX TEMP:  51; 6HR PCP: TRACE;

STUTTGART      CLEAR     48  39  71 NW13      30.01R
6HR MIN TEMP:  48; 6HR MAX TEMP:  52;

MONTICELLO     CLOUDY    52  48  86 NW7       30.00R
6HR MIN TEMP:  51; 6HR MAX TEMP:  53;


$$





USA.gov is the U.S. government's official web portal to all federal, state and local government web resources and services.